Location: Bennemühlen
(52.5740°N, 9.7135°E)
Time: 06:15:16
(UTC+00:00)

A-11 Canister half - Pass Details

Date: 27 February 2026
Orbit: 1512 x 1687 km, 47.2° (Epoch: 5 March)

Event Time Altitude Azimuth Distance (km) Brightness Sun altitude
Rises 23:12:31 0° 283° (WNW) 4,936 11.9 -45.3°
Reaches altitude 10° 23:15:55 10° 277° (W) 3,933 11.2 -45.3°
Enters shadow 23:17:40 16° 273° (W) 3,446 10.8 -45.4°
Maximum altitude 23:25:05 42° 212° (SSW) 2,200 - -45.4°
Drops below altitude 10° 23:33:59 10° 146° (SE) 3,810 - -45.5°
Sets 23:37:14 0° 139° (SE) 4,768 - -45.5°
